This demonstration page uses our WeatherBlox Daily Observations layout. Learn more.

Left ArrowRight Arrow

Hourly Observations for October 24, 2019

Temp ( °F °C ) Dew Point ( °F °C ) Humidity (%) Winds ( mph kmh ) Pressure ( in mb ) Visibility ( mi km ) Precip ( " mm )
12:53 am 00:53 Clear 66 18.9 53 11.7 63 63 ESE 10 17 29.78 1008 10 16 0.00 0.00
1:53 am 01:53 Clear 63 17.2 53 11.7 70 70 SE 10 17 29.77 1008 10 16 0.00 0.00
2:53 am 02:53 Clear 58 14.4 52 11.1 81 81 SE 6 9 29.79 1009 10 16 0.00 0.00
3:53 am 03:53 Clear 56 13.3 52 11.1 87 87 SE 5 7 29.78 1009 10 16 0.00 0.00
4:53 am 04:53 Clear 49 9.4 44 6.7 83 83 N 7 11 29.80 1009 10 16 0.00 0.00
5:53 am 05:53 Clear 47 8.3 42 5.6 83 83 N 10 17 29.82 1010 10 16 0.00 0.00
6:53 am 06:53 Clear 52 11.1 34 1.1 50 50 NNE 14 22 29.85 1011 10 16 0.00 0.00
7:53 am 07:53 Clear 54 12.2 34 1.1 47 47 N 10 17 29.91 1013 10 16 0.00 0.00
8:19 am 08:19 Mostly Cloudy 57 13.9 35 1.7 44 44 NNE 16 26 29.94 1014 10 16 0.00 0.00
8:53 am 08:53 Cloudy 57 13.9 36 2.2 45 45 NNE 17 28 29.95 1014 10 16 0.00 0.00
9:53 am 09:53 Cloudy 59 15 36 2.2 42 42 NNE 24 39 30.00 1016 10 16 0.00 0.00
10:53 am 10:53 Cloudy 58 14.4 31 -0.6 36 36 NNE 23 37 30.05 1018 10 16 0.00 0.00
11:53 am 11:53 Cloudy 56 13.3 32 0 40 40 N 18 30 30.09 1019 10 16 0.00 0.00
12:53 pm 12:53 Cloudy 56 13.3 32 0 40 40 N 21 33 30.11 1020 10 16 0.00 0.00
1:53 pm 13:53 Cloudy 53 11.7 31 -0.6 43 43 N 21 33 30.12 1020 10 16 0.00 0.00
2:53 pm 14:53 Cloudy 50 10 30 -1.1 46 46 N 22 35 30.15 1021 10 16 0.00 0.00
3:53 pm 15:53 Cloudy 46 7.8 30 -1.1 54 54 N 22 35 30.19 1022 10 16 0.00 0.00
4:53 pm 16:53 Cloudy 45 7.2 31 -0.6 58 58 N 23 37 30.23 1024 10 16 0.00 0.00
5:04 pm 17:04 Cloudy 45 7.2 31 -0.6 58 58 N 24 39 30.30 1026 10 16 0.00 0.00
5:53 pm 17:53 Cloudy 43 6.1 29 -1.7 58 58 N 23 37 30.27 1025 10 16 0.00 0.00
6:53 pm 18:53 Cloudy 41 5 28 -2.2 60 60 N 24 39 30.29 1026 10 16 0.00 0.00
7:53 pm 19:53 Partly Cloudy 40 4.4 27 -2.8 60 60 N 17 28 30.32 1027 10 16 0.00 0.00
8:12 pm 20:12 Mostly Cloudy 40 4.4 27 -2.8 60 60 N 14 22 30.42 1030 10 16 0.00 0.00
8:53 pm 20:53 Cloudy 40 4.4 27 -2.8 60 60 NNE 15 24 30.33 1027 10 16 0.00 0.00
9:53 pm 21:53 Mostly Cloudy 39 3.9 26 -3.3 60 60 N 16 26 30.35 1028 10 16 0.00 0.00
10:06 pm 22:06 Mostly Cloudy 39 3.9 26 -3.3 60 60 N 15 24 30.45 1031 10 16 0.00 0.00
10:19 pm 22:19 Mostly Cloudy 39 3.9 27 -2.8 62 62 N 12 19 30.45 1031 10 16 0.00 0.00
10:53 pm 22:53 Cloudy 39 3.9 27 -2.8 62 62 N 9 15 30.37 1029 10 16 0.00 0.00
11:53 pm 23:53 Cloudy 39 3.9 27 -2.8 62 62 N 10 17 30.37 1029 10 16 0.00 0.00

Powered by AerisWeather